Weather History for Limon, CO

Change the Weather History Date:

Sunday, February 10, 2013

  Actual Average Record
Temperature  
Mean Temperature 26 °F -  
Max Temperature 36 °F - 66 °F (1999)
Min Temperature 16 °F - -11 °F (2011)
Degree Days  
Heating Degree Days 39    
Month to date heating degree days 325  
Cooling Degree Days 0    
Month to date cooling degree days 0  
Moisture  
Dew Point 14 °F    
Average Humidity 67    
Maximum Humidity 89    
Minimum Humidity 31    
Precipitation  
Precipitation T in - 0.01 in (2006)
Month to date precipitation T  
Year to date precipitation 0.29  
Sea Level Pressure  
Sea Level Pressure 29.80 in    
Wind  
Wind Speed 24 mph (NNW)    
Max Wind Speed 37 mph    
Max Gust Speed 47 mph    
Visibility 10 miles    
Events Snow    
T = Trace of Precipitation, MM = Missing Value Source: NWS Daily Summary

Daily Weather History Graph

Daily Weather History Graph

Search for Another Location

Airport:

Trip Planner

Search our weather history database for the weather conditions in past years. The results will help you decide how hot, cold, wet, or windy it might be!

Date:

Astronomy

Feb. 10, 2013 Rise Set
Actual Time 6:52 AM MST 5:26 PM MST
Civil Twilight 6:24 AM MST 5:53 PM MST
Nautical Twilight 5:52 AM MST 6:25 PM MST
Astronomical Twilight 5:21 AM MST 6:56 PM MST
Moon 6:43 AM MST (2/10) 6:18 PM MST (2/10)
Length of Visible Light 11h 29m
Length of Day
10h 34m
New Moon, 0% of the Moon is Illuminated
Feb 10
New Moon
Feb 17
First Quarter
Feb 25
Full
Mar 4
Last Quarter
Mar 11
New

Hourly Weather History & Observations

Time (MST) Temp. Windchill Dew Point Humidity Pressure Visibility Wind Dir Wind Speed Gust Speed Precip Events Conditions
12:55 AM 24.1 °F 8.0 °F 18.0 °F 77% 29.51 in 10.0 mi NW 25.3 mph 33.4 mph N/A   Overcast
1:55 AM 21.9 °F 4.8 °F 17.1 °F 82% 29.51 in 10.0 mi NW 26.5 mph 33.4 mph N/A   Scattered Clouds
2:55 AM 21.9 °F 4.8 °F 16.0 °F 78% 29.52 in 10.0 mi NW 26.5 mph 36.8 mph N/A   Clear
3:55 AM 21.9 °F 4.2 °F 19.0 °F 89% 29.54 in 10.0 mi NW 28.8 mph 43.7 mph N/A   Clear
4:55 AM 21.9 °F 6.2 °F 19.0 °F 89% 29.60 in 10.0 mi NW 21.9 mph 29.9 mph 0.00 in Snow Light Snow
5:35 AM 21.2 °F 5.2 °F 17.6 °F 86% 29.60 in 10.0 mi NNW 21.9 mph 32.2 mph 0.00 in   Scattered Clouds
5:55 AM 21.9 °F 4.8 °F 17.1 °F 82% 29.66 in 10.0 mi NNW 26.5 mph 33.4 mph 0.00 in   Clear
6:55 AM 21.9 °F 5.1 °F 17.1 °F 82% 29.70 in 10.0 mi NNW 25.3 mph 35.7 mph N/A   Clear
7:55 AM 23.0 °F 8.7 °F 17.1 °F 78% 29.76 in 10.0 mi NNW 18.4 mph - N/A   Scattered Clouds
8:55 AM 25.0 °F 8.1 °F 18.0 °F 75% 29.78 in 10.0 mi NNW 29.9 mph 40.3 mph 0.00 in   Overcast
9:40 AM 26.6 °F 11.7 °F 21.2 °F 80% 29.72 in 9.0 mi NNW 24.2 mph 34.5 mph 0.00 in Snow Light Snow
9:55 AM 27.0 °F 11.0 °F 19.0 °F 72% 29.80 in 10.0 mi NNW 28.8 mph 36.8 mph 0.00 in   Overcast
10:13 AM 28.4 °F 12.7 °F 19.4 °F 69% 29.74 in 10.0 mi NNW 29.9 mph 36.8 mph N/A   Overcast
10:55 AM 30.0 °F 14.5 °F 15.1 °F 54% 29.82 in 10.0 mi NNW 32.2 mph 40.3 mph 0.00 in   Overcast
11:55 AM 32.0 °F 17.2 °F 12.9 °F 45% 29.81 in 10.0 mi NNW 32.2 mph 41.4 mph 0.00 in   Overcast
12:55 PM 36.0 °F 22.8 °F 10.9 °F 36% 29.81 in 10.0 mi NNW 31.1 mph 43.7 mph N/A   Mostly Cloudy
1:55 PM 35.1 °F 21.6 °F 7.0 °F 31% 29.82 in 10.0 mi NNW 31.1 mph 47.2 mph N/A   Partly Cloudy
2:55 PM 35.1 °F 23.3 °F 9.0 °F 34% 29.85 in 10.0 mi North 23.0 mph 35.7 mph N/A   Partly Cloudy
3:55 PM 32.0 °F 19.5 °F 10.0 °F 40% 29.89 in 10.0 mi North 21.9 mph 34.5 mph N/A   Clear
4:55 PM 28.0 °F 13.6 °F 10.0 °F 47% 29.94 in 10.0 mi North 24.2 mph 31.1 mph N/A   Clear
5:55 PM 23.0 °F 10.6 °F 12.0 °F 63% 29.99 in 10.0 mi North 13.8 mph - N/A   Clear
6:55 PM 19.0 °F 7.5 °F 9.0 °F 65% 30.05 in 10.0 mi North 10.4 mph - N/A   Partly Cloudy
7:55 PM 17.1 °F 6.6 °F 9.0 °F 71% 30.07 in 10.0 mi North 8.1 mph - N/A   Partly Cloudy
9:55 PM 18.0 °F 9.8 °F 9.0 °F 68% 30.09 in 10.0 mi NNW 5.8 mph - N/A   Partly Cloudy
10:55 PM 19.0 °F 11.1 °F 10.9 °F 71% 30.10 in 10.0 mi NW 5.8 mph - N/A   Overcast
11:55 PM 18.0 °F 7.7 °F 10.9 °F 74% 30.10 in 10.0 mi NNW 8.1 mph - N/A   Scattered Clouds